ATLAS 5 CENTAUR DEB, 46604

Orbit data source: Space-Track

ATLAS 5 CENTAUR DEB, 46604 is space debris in HEO originally from a launch on Wed, 17 Oct 2018 UTC launched from the Air Force Eastern Test Range (AFETR). Debris objects in space refer to the collection of defunct objects orbiting the Earth. Examples of debris include non-operational satellites, rocket bodies, and fragments generated from explosions, collisions, or faulty payload assembly.

Loading next visibility...
Identifier
46604, 2018-079CC
Orbit
HEO
Country
Flag of USUS
Related business
Flag of USUnited Launch Alliance/Lockheed Martin (US)
Manufacturer
ULA Decatur
Mission
Spacecraft
Bus & Motor
Unknown
Mass
Unknown
Launch date (UTC)
2018-10-17 (7 years ago)
Launch vehicle
Unknown
Launch site
Air Force Eastern Test Range (AFETR)
Object type
Payload
Rocket body
Debris
Shape & HBR
Unknown shape, 1.1 m
Radar Cross Section
RCS unknown

Expand to show TLE details & history
Last TLE update: 2 days ago

TLE from 2 days ago
0 ATLAS 5 CENTAUR DEB
1 46604U 18079CC  25300.13214415 -.00000052  00000-0  00000-0 0  9994
2 46604  13.1251  71.0702 4627563 234.5921  73.0608  1.74517360 37830
Epoch: 2025-10-27T03:10Z
TLE epoch observation values (Epoch: 2025-10-27T03:10:17.254Z)
Latitude
Longitude
-12.318°
Altitude
24,904.324 km
Speed
3.436 km/s
True Right ascension
04h 43m 58s
True Declination
0° 00' 00"
Sunlit
Object was in daylight at epoch
Visualization orbit readout
Latitude
Unknown
Longitude
Unknown
Altitude
Unknown
Speed
Unknown
Apparent Right ascension
Unknown
Apparent Declination
Unknown
Sunlit
N/A
Visualization observer readout
Local Sidereal Time
18:16:23
Azimuth
Unknown
Elevation
Unknown
Doppler factor
Unknown
Orbital elements
Apogee altitude
36,251.486 km
Perigee altitude
9,278.946 km
Semi-major axis
29,143.353 km
Eccentricity
0.46276
Inclination
13.1251°
RAAN
71.0702°
Arg. of periapsis
234.5921°
True anomaly
125.45848°
Mean anomaly
73.0608°
Eccentric anomaly
99.23139°
Mean motion
0.43625 °/min
Orbital period
825.22 mins
BSTAR
0
Loading maneuver chart data...
Computing Atmospheric mass density...

Documentation

Showing up to 5 results
|